Location: Karcze
(52.0945°N, 22.4786°E)
Time: 22:33:34
(UTC+00:00)

Transit 2A Rocket - Pass Details

Date: 02 August 2021
Orbit: 586 x 917 km, 66.7° (Epoch: 26 September)

Event Time Altitude Azimuth Distance (km) Brightness Sun altitude
Rises 14:52:58 0° 268° (W) 2,947 9.2 29.6°
Reaches altitude 10° 14:55:37 10° 283° (WNW) 2,089 8.6 29.2°
Maximum altitude 14:59:22 23° 336° (NNW) 1,486 6.9 28.6°
Drops below altitude 10° 15:03:24 10° 28° (NNE) 2,261 7.2 28.0°
Sets 15:06:24 0° 43° (NE) 3,256 7.8 27.5°
